Regional Weather Roundup
Issued by NWS

Home | Current Version | Previous Version | Graphics & Text | Print | Product List | Glossary On
Versions: 1 2 3 4 5 6 7 8 9 10 11 12 13 14 15 16 17 18 19 20 21 22 23 24 25 26 27 28 29 30 31 32 33 34 35 36 37 38 39 40 41 42 43 44 45 46 47 48 49 50
000
ASUS43 KIND 231659
RWRIN

WEATHER ROUNDUP FOR INDIANA
NATIONAL WEATHER SERVICE INDIANAPOLIS IN
100 PM EDT SAT AUG 23 2014

NOTE: "FAIR" INDICATES FEW OR NO CLOUDS BELOW 12,000 FEET WITH NO
SIGNIFICANT WEATHER AND/OR OBSTRUCTIONS TO VISIBILITY.

* - STATION DOES NOT REPORT WEATHER SUCH AS PRECIPITATION OR FOG.

+ - STATION NOT QUALITY CONTROLLED BY THE NATIONAL WEATHER SERVICE.
    USE DATA WITH CAUTION...ESPECIALLY DEWPOINT AND RELATIVE
    HUMIDITY OBSERVATIONS.

INZ001>003-010>013-019-020-231800-
NORTHWEST INDIANA

CITY           SKY/WX    TMP DP  RH WIND       PRES   REMARKS
GARY /AIRPORT/ PTSUNNY   84  75  74 CALM      30.01R
KNOX *+        MOSUNNY   84  71  65 CALM      30.01S
MONTICELLO +   MOSUNNY   84  75  74 CALM      30.00S
RENSSELAER +   PTSUNNY   84  75  74 CALM      30.00F
VALPARAISO     PTSUNNY   83  72  69 S6        30.02S

$$

LMZ046-743>745-231800-
SOUTHERN LAKE MICHIGAN

STATION/POSITION TIME  TEMP WIND        PRES
                       AIR  DIR/SP/G
                 (UTC) (F)  (DEG/KT/KT) (MB)
BURNS HARBOR     1600   76   40/  5/  6   N/A
MICHIGAN CITY    1600   74  360/  5/  6   N/A

$$

INZ004-005-014>016-021>024-231800-
NORTH CENTRAL INDIANA

CITY           SKY/WX    TMP DP  RH WIND       PRES   REMARKS
GOSHEN         PTSUNNY   83  73  72 SE6       30.03S
SOUTH BEND     CLOUDY    79  73  82 E5        30.04R
WARSAW +       CLOUDY    79  72  78 CALM      30.04S

$$

INZ006>009-017-018-025>027-231800-
NORTHEAST INDIANA

CITY           SKY/WX    TMP DP  RH WIND       PRES   REMARKS
ANGOLA *+      PTSUNNY   82  70  65 SE7       30.04S
FORT WAYNE     CLOUDY    79  72  79 E3        30.04S

$$

INZ028-029-035-036-043>045-051>053-231800-
WEST CENTRAL INDIANA

CITY           SKY/WX    TMP DP  RH WIND       PRES   REMARKS
GREENCASTLE +  PTSUNNY   82  75  78 CALM      30.01S
LAFAYETTE      PTSUNNY   84  73  69 VRB3      29.99S
TERRE HAUTE    PTSUNNY   85  76  74 CALM      29.99S

$$

INZ030>032-037>040-046>048-054>057-064-065-231800-
CENTRAL INDIANA

CITY           SKY/WX    TMP DP  RH WIND       PRES   REMARKS
ANDERSON       PTSUNNY   77  73  88 CALM      30.03
COLUMBUS       PTSUNNY   84  75  74 CALM      30.00F
FRANKFORT +    MOSUNNY   85  74  70 CALM      30.02F
INDIANAPOLIS   CLOUDY    84  73  69 S8        30.00S
-EAGLE CREEK   CLOUDY    85  72  65 S6        30.00S
KOKOMO *+      PTSUNNY   84  73  70 S3        30.01S
MT COMFORT *+  MOSUNNY   84  72  65 CALM      30.02S
SHELBYVILLE    PTSUNNY   86  73  65 CALM      30.00F

$$

INZ033-034-041-042-049-050-058-059-231800-
EAST CENTRAL INDIANA

CITY           SKY/WX    TMP DP  RH WIND       PRES   REMARKS
MUNCIE         CLOUDY    83  74  74 E6        30.02S

$$

INZ060-061-067>069-081>083-085>088-231800-
SOUTHWEST INDIANA

CITY           SKY/WX    TMP DP  RH WIND       PRES   REMARKS
EVANSVILLE     MOSUNNY   90  77  65 VRB5      29.97F HX 103

$$

INZ062-063-066-070>080-084-089>092-231800-
SOUTH CENTRAL AND SOUTHEAST INDIANA

CITY           SKY/WX    TMP DP  RH WIND       PRES   REMARKS
BLOOMINGTON    MOSUNNY   85  73  67 VRB3      30.01S

$$




USA.gov is the U.S. government's official web portal to all federal, state and local government web resources and services.